Theta_e
315 315 316 316 317 317 317 317 317 317 317 317 317 317 316 316 315 315 314 314 316 316 315 315 314 314 314 314 316 316 316 316 312 312 313 312 312 312 312 313 314 314 312 314 314 315 314 313 313 313 317 318 315 317 315 316 323 329 336 333 320 319 323 322 319 318 319 320 317 311 310 313 314 309 303 302 303 305 304 302 302 300 298 298 298 298 298 300
314 314 315 315 316 316 316 315 316 315 316 316 316 316 316 316 315 315 314 314 315 316 315 315 315 314 314 314 315 315 316 316 314 312 313 312 311 312 312 312 313 314 312 312 313 313 314 314 312 313 321 319 313 317 318 314 320 333 335 325 318 325 325 320 320 316 314 316 316 312 309 310 313 310 305 307 310 305 305 306 303 302 302 299 296 296 297 298
312 312 313 314 314 314 314 314 314 314 315 315 315 315 315 315 315 314 314 313 314 316 314 315 315 314 315 314 314 316 316 315 314 313 313 312 311 311 310 311 312 313 312 312 313 312 313 314 310 314 324 320 313 318 322 317 318 324 327 324 324 330 324 317 318 317 314 313 315 313 308 309 310 307 305 309 312 307 308 310 306 306 305 302 297 295 296 296
309 310 310 311 312 312 313 313 313 313 313 314 314 315 315 314 314 314 313 313 313 315 315 314 315 315 315 314 314 315 316 316 316 314 313 312 312 311 311 310 310 313 312 311 313 311 312 311 310 316 322 319 320 322 320 317 317 317 321 325 323 321 319 317 316 317 315 310 313 314 309 310 308 305 306 309 311 309 308 308 309 311 308 302 297 295 295 295
309 309 309 309 310 310 311 311 311 311 312 312 313 313 313 313 314 313 313 312 312 314 315 315 315 315 315 314 314 314 317 321 318 314 313 312 311 312 311 310 310 312 312 312 312 312 311 310 312 323 324 321 326 324 316 313 313 315 316 319 318 314 314 317 315 314 314 308 311 314 311 311 307 305 307 307 311 312 310 307 306 309 307 302 298 295 294 294
309 309 309 309 309 309 309 309 310 310 310 310 311 311 312 312 312 313 312 312 311 313 314 315 315 315 315 314 314 314 317 320 316 314 314 312 311 312 312 310 311 312 312 312 311 312 315 314 317 327 327 322 321 318 315 312 310 315 315 314 317 314 313 315 314 313 312 311 313 314 310 309 308 309 307 306 309 311 309 306 304 304 302 299 297 295 295 295
311 310 309 309 309 309 309 309 309 309 309 309 309 309 310 311 311 311 312 312 311 312 314 315 315 315 315 314 315 318 320 319 315 314 314 312 312 312 312 310 310 311 312 312 311 316 321 320 321 324 325 320 316 316 315 312 310 315 316 315 316 312 313 315 313 312 312 312 313 309 308 309 312 310 306 306 307 308 305 299 298 298 297 297 296 295 295 295
312 312 311 310 310 309 309 309 309 309 309 309 309 309 309 309 310 310 311 311 311 312 314 314 315 315 315 315 316 322 325 319 314 314 313 313 312 312 312 311 310 311 312 310 311 317 320 319 319 318 319 316 314 316 313 311 313 316 315 315 315 312 316 316 311 313 312 311 309 307 309 311 311 307 305 308 306 306 303 298 296 296 295 296 296 296 295 294
313 313 313 312 311 310 310 309 309 309 309 309 309 308 309 308 309 310 310 311 310 312 314 314 316 316 317 316 316 322 324 317 313 313 313 312 312 312 312 311 310 311 311 311 310 312 315 317 317 315 318 316 312 314 313 312 315 315 314 316 317 315 316 314 311 314 311 309 307 308 312 310 306 305 308 310 307 305 303 300 300 298 298 297 296 295 294 294
314 314 314 313 312 311 311 310 310 310 309 309 309 309 309 309 309 309 309 310 310 312 313 313 315 316 317 316 315 319 318 314 313 312 312 312 312 311 312 311 310 311 311 311 310 310 312 314 313 311 315 316 312 312 312 312 312 313 314 315 315 313 313 311 311 314 310 308 308 309 313 310 305 306 310 310 303 301 302 302 299 299 300 297 295 294 293 293
313 314 314 314 313 313 311 311 310 310 310 309 309 309 309 309 309 309 309 310 311 312 313 313 314 315 316 315 318 321 315 313 313 312 312 311 311 312 311 311 310 311 311 311 310 310 310 311 308 308 313 314 312 312 310 309 310 311 312 312 312 312 312 310 310 311 308 309 308 308 310 309 305 306 311 309 299 298 303 303 299 299 299 295 294 294 292 292
312 313 314 314 314 313 312 312 311 310 310 310 310 309 309 309 309 309 309 310 311 312 313 313 314 315 315 315 320 320 315 313 312 311 311 310 312 312 310 310 310 310 311 310 310 309 310 309 309 312 312 311 312 312 310 308 308 310 310 311 315 318 316 310 309 308 307 309 308 307 309 310 308 308 311 307 298 297 302 303 299 297 296 294 294 293 293 292
311 311 313 313 313 314 313 312 311 311 310 310 310 309 309 309 309 309 309 310 311 312 314 313 314 315 315 318 319 315 313 313 312 310 310 310 311 311 310 310 310 310 311 311 310 309 310 309 311 314 311 312 315 309 309 308 307 309 308 311 317 321 320 311 307 307 307 310 308 309 314 316 313 311 310 304 298 300 302 303 299 296 295 294 293 293 293 292
310 310 311 311 312 313 313 312 312 311 310 310 309 309 309 308 309 309 310 311 311 313 314 313 315 314 315 320 316 312 314 313 311 311 310 310 311 310 310 310 311 311 311 311 310 309 310 308 310 312 309 311 310 304 311 315 312 311 308 315 320 317 322 316 308 309 309 309 307 309 314 317 315 314 312 303 299 302 305 304 298 296 295 293 293 293 293 292
309 309 309 310 311 311 312 312 312 311 311 310 309 309 309 308 309 309 310 312 311 313 314 314 315 314 317 319 314 312 314 311 311 311 310 310 310 310 310 310 311 311 311 311 310 310 309 309 312 315 311 308 308 310 322 325 323 319 310 322 326 316 323 322 311 310 310 308 306 309 315 315 312 314 312 301 297 301 304 304 299 296 295 293 293 292 293 293
309 309 308 308 309 309 310 311 311 311 311 310 309 309 309 308 309 310 312 312 312 314 314 315 315 314 318 317 313 313 313 312 312 312 311 310 309 310 310 310 311 310 311 310 310 309 308 312 312 311 311 308 314 326 328 324 330 326 314 320 329 319 319 318 311 309 309 309 308 309 313 315 312 314 309 298 297 301 302 303 300 297 295 293 293 292 293 293
310 309 308 308 307 308 309 309 311 311 311 311 309 309 308 308 310 310 312 313 315 316 314 316 314 313 315 314 313 315 312 311 313 313 312 311 309 310 309 310 310 308 310 309 310 311 309 314 311 309 316 313 317 328 321 318 326 327 317 318 325 319 314 315 313 308 305 308 310 310 310 311 311 312 310 301 299 302 303 302 301 298 296 294 293 293 293 293
311 310 309 308 307 307 308 308 310 310 311 310 309 309 308 309 309 310 313 313 314 314 313 314 312 313 315 313 313 315 312 311 314 313 312 312 310 310 310 309 307 307 314 314 311 314 313 316 315 318 324 316 316 322 315 317 321 321 321 320 321 317 312 314 314 308 304 307 310 310 309 309 309 309 309 307 302 303 304 302 300 299 298 295 294 293 293 292
311 310 310 308 307 306 307 308 309 310 311 310 309 308 308 310 310 311 310 309 313 314 313 314 315 315 315 313 312 311 312 312 313 312 311 312 310 309 310 308 310 313 317 318 315 317 316 317 319 320 322 316 317 320 316 324 326 321 322 322 320 317 313 312 310 306 304 306 308 307 307 307 307 307 307 308 306 304 304 302 300 300 299 297 294 293 293 293
312 311 310 309 308 307 306 307 309 310 310 310 309 308 311 315 316 317 314 311 313 312 313 316 315 316 313 312 312 311 313 312 312 312 310 310 309 310 309 309 315 318 318 322 322 315 312 318 322 319 320 319 321 320 316 321 320 315 316 316 314 312 310 310 307 306 303 305 308 307 306 306 305 306 305 306 306 305 303 301 300 300 299 298 296 294 294 293
312 312 311 310 309 308 307 307 308 310 310 310 310 310 313 314 314 315 315 316 311 304 309 313 308 311 310 309 311 311 314 313 311 311 310 309 309 311 313 312 315 319 320 322 320 312 311 318 321 320 319 318 318 315 310 311 309 308 311 311 310 310 309 307 306 306 305 305 308 309 308 307 305 306 306 306 307 307 305 303 302 302 301 299 297 295 294 294
312 312 311 310 311 309 307 308 309 310 310 310 310 309 308 308 310 308 308 316 315 304 308 310 306 310 308 306 309 310 313 316 313 312 310 308 309 312 317 316 316 321 319 316 316 316 317 320 319 317 314 310 309 306 306 309 308 308 311 310 310 310 310 310 307 307 305 305 309 310 307 307 306 306 307 307 307 307 307 306 305 304 303 300 298 296 295 294
313 313 312 312 312 310 308 309 310 311 310 310 310 308 305 307 310 307 307 315 318 312 314 315 314 318 315 309 309 310 313 314 314 314 310 308 311 314 317 317 318 321 317 316 320 319 322 325 317 310 309 310 308 303 304 308 308 310 311 312 313 310 311 313 310 307 307 306 307 308 306 306 306 306 306 308 307 307 307 306 306 304 303 302 299 297 296 295
313 314 313 313 313 312 310 309 310 310 311 311 309 307 307 308 309 309 312 315 317 316 316 313 313 320 320 311 308 312 314 313 315 314 309 310 313 312 314 318 320 320 316 318 321 319 322 320 307 304 308 313 313 305 304 307 310 314 312 310 313 312 312 313 311 308 310 309 305 307 309 310 311 309 308 309 307 307 305 305 306 303 301 302 301 299 297 296
313 314 313 313 313 312 309 308 309 309 310 311 309 307 308 309 309 308 311 314 315 316 312 308 310 317 315 309 309 312 314 315 316 312 305 308 313 311 312 314 315 318 318 319 319 319 321 311 304 308 308 311 315 311 310 310 312 318 317 312 311 312 312 311 310 309 314 317 308 307 313 312 314 315 315 315 313 312 310 308 309 306 302 301 300 299 298 296
313 314 314 313 312 312 309 309 310 309 310 311 310 308 307 309 310 308 309 310 313 317 312 309 313 315 310 310 311 312 315 316 310 305 304 306 309 311 313 312 311 316 319 317 318 320 318 306 305 313 311 310 313 313 313 311 312 316 316 312 309 308 310 309 309 310 318 319 308 308 316 314 312 315 319 319 317 315 312 310 310 308 305 303 300 299 298 297
313 313 314 314 312 311 311 312 312 310 311 311 310 308 306 307 308 306 307 307 310 316 315 312 312 312 311 309 308 311 318 315 306 303 305 306 306 308 313 315 312 313 312 313 317 318 314 308 307 311 312 312 311 314 313 309 314 318 312 311 311 308 310 311 309 310 313 312 308 309 312 313 312 314 315 314 313 312 310 311 309 306 305 304 301 299 298 297
313 312 313 314 312 311 310 311 311 310 310 310 308 306 307 307 306 308 306 304 310 315 315 315 311 309 310 307 306 311 313 311 310 307 302 303 306 308 313 317 317 314 310 313 319 316 311 312 313 312 313 314 314 317 313 308 315 317 308 307 310 309 312 312 308 309 309 307 311 311 307 310 314 314 312 308 308 313 314 315 312 309 309 306 303 301 298 297
314 312 312 311 310 311 310 311 312 311 310 309 307 306 307 305 305 310 308 305 312 316 313 313 310 310 311 308 310 313 310 309 312 308 302 303 305 307 310 314 316 313 308 312 319 316 310 309 311 313 315 315 315 311 306 309 313 309 304 306 308 308 308 308 308 308 310 310 314 313 307 311 315 314 313 308 309 315 316 316 313 311 312 308 305 303 299 296
313 313 312 311 312 312 312 312 311 311 310 308 308 307 307 306 307 309 307 306 311 314 312 312 311 312 313 313 314 312 311 312 309 306 306 306 306 307 307 307 312 316 314 314 317 315 308 304 305 311 314 313 311 305 301 306 308 303 306 310 312 311 307 308 311 310 312 315 316 313 308 309 314 316 315 311 313 317 316 315 313 313 316 313 306 303 300 297
314 314 312 312 313 312 312 311 310 310 309 307 308 307 308 314 315 311 308 307 307 310 313 314 312 313 315 317 319 313 311 314 310 307 308 307 308 310 309 308 313 320 321 318 317 314 308 307 309 311 310 308 310 308 303 302 302 305 313 315 316 317 313 315 316 312 315 319 318 313 306 307 312 315 314 312 312 314 314 316 319 319 321 319 309 302 300 297
315 315 313 311 312 312 312 312 311 311 309 307 307 309 313 317 314 310 307 306 307 312 316 318 313 314 316 316 318 315 313 316 311 308 311 311 311 312 312 315 316 318 322 321 319 319 315 312 311 309 306 308 315 315 307 303 303 307 315 318 319 319 319 322 320 316 318 319 314 307 305 307 309 311 311 310 311 311 310 312 318 321 323 320 310 304 301 296
316 316 314 312 312 312 312 311 312 312 311 306 307 313 316 313 309 309 309 306 308 312 316 319 315 315 316 316 319 317 313 317 312 307 311 311 311 312 313 316 317 315 318 318 316 320 320 314 308 308 309 309 314 315 313 311 307 306 313 319 320 320 321 322 318 315 315 316 310 303 307 311 310 311 310 309 309 310 307 306 309 314 318 315 307 301 300 295
317 317 315 312 312 312 311 311 311 313 310 306 308 314 315 311 308 310 311 309 309 312 316 318 315 314 315 317 322 318 314 317 314 309 310 310 310 314 315 313 313 315 318 316 315 319 319 315 312 313 314 311 310 312 317 316 308 306 312 315 317 323 324 320 320 317 316 320 314 304 309 315 313 314 313 309 308 309 308 307 305 306 306 304 300 298 298 295
316 318 316 313 312 312 311 310 311 312 310 306 309 313 312 310 311 313 313 311 311 315 316 314 314 315 316 318 320 318 316 316 314 311 312 312 313 316 317 314 310 314 320 318 318 318 315 317 316 310 309 308 308 312 313 312 309 308 311 312 314 320 318 314 319 316 314 320 316 308 311 315 311 312 313 310 308 307 308 306 305 306 303 301 301 300 298 294
317 318 316 314 313 312 310 310 311 312 309 307 310 313 309 308 314 316 313 311 313 318 316 314 316 316 317 319 319 317 313 312 313 314 313 312 313 315 317 316 310 310 315 316 319 318 315 318 313 305 306 305 304 307 308 311 312 308 309 312 312 312 313 315 317 312 310 315 316 313 313 312 310 311 312 311 309 308 307 303 303 305 302 301 303 301 298 294
318 317 314 313 312 311 310 310 311 311 308 307 311 314 309 309 314 314 311 310 313 319 316 313 314 316 319 320 319 317 314 311 312 314 315 313 314 314 314 316 313 309 311 314 319 320 317 318 312 307 310 304 297 303 306 306 308 310 314 313 308 308 311 317 319 316 314 315 317 316 313 310 311 311 309 308 308 309 307 304 304 303 300 301 302 300 297 294
318 315 313 313 312 311 309 309 310 310 308 307 311 314 312 310 309 309 312 311 311 316 315 310 310 314 319 317 317 317 314 314 314 313 317 315 314 315 313 315 314 310 310 311 317 320 316 315 314 308 309 303 297 303 309 304 301 307 312 308 308 313 314 314 316 317 316 315 318 319 313 309 310 310 310 309 310 311 308 305 305 303 301 301 301 300 298 293
316 315 315 313 312 311 309 308 310 311 310 309 309 312 314 311 307 310 316 313 311 314 312 310 308 309 315 315 317 317 312 313 315 312 315 315 314 315 313 313 315 311 309 310 313 317 314 314 316 306 303 304 301 305 313 308 301 301 304 303 306 312 315 315 314 315 317 315 315 315 311 310 312 314 314 311 312 313 311 309 307 305 303 301 299 300 299 294
315 316 315 313 313 311 308 308 311 312 312 312 310 310 312 311 310 313 314 311 311 311 308 311 311 307 312 314 315 318 314 312 313 312 313 314 314 315 312 313 317 314 309 309 312 315 314 314 316 309 302 305 307 308 311 311 305 303 305 306 306 306 311 314 311 312 317 316 315 314 310 310 314 315 315 314 313 310 312 314 311 307 305 301 298 299 299 295
314 316 315 311 311 310 308 310 313 313 314 313 312 312 311 310 310 311 311 308 309 309 308 313 314 308 310 313 313 315 314 313 313 311 313 314 313 313 311 313 318 315 310 310 312 314 316 315 315 314 309 308 310 307 305 309 309 306 306 307 306 306 310 312 311 311 313 315 317 316 311 309 313 313 316 320 315 308 311 315 311 310 309 304 300 298 297 296
315 317 314 310 310 309 310 313 313 313 314 314 313 314 312 312 311 310 309 308 308 308 308 312 314 310 310 311 312 313 315 317 316 312 313 314 311 311 312 313 313 312 312 313 311 313 319 318 314 315 314 311 306 302 301 307 308 306 307 308 307 306 308 311 312 311 312 312 312 313 313 311 313 319 323 326 321 313 313 313 310 312 311 307 303 297 295 294
316 315 311 309 309 309 310 314 313 313 315 314 314 314 313 314 314 312 310 309 307 307 308 309 310 309 309 310 312 313 314 316 316 313 314 317 314 311 312 314 312 312 314 314 312 313 317 316 313 314 315 311 304 299 300 303 305 307 308 307 306 306 307 310 311 311 314 313 310 312 312 309 313 323 325 324 321 315 312 310 310 312 311 307 303 298 294 292
316 313 308 308 309 309 312 315 314 314 314 313 314 314 313 315 316 314 311 310 309 309 308 307 308 308 308 311 311 311 311 311 312 313 313 317 317 312 314 315 312 312 314 314 314 312 314 316 315 314 316 315 310 306 304 303 304 308 309 306 306 306 306 308 308 309 311 311 310 311 311 308 312 317 314 312 312 310 308 306 304 307 308 306 302 297 292 290
317 313 308 308 309 309 313 315 314 314 314 313 314 314 314 315 316 314 313 311 310 310 309 309 310 309 309 311 310 309 310 309 309 311 312 315 313 309 313 316 312 311 313 314 314 313 315 318 314 313 315 315 313 310 312 310 305 305 308 307 306 306 306 307 308 309 309 309 310 310 310 309 310 312 309 308 308 309 308 305 301 301 302 301 300 296 292 290
317 315 311 308 308 309 311 312 312 313 314 314 315 314 314 315 315 314 314 313 311 310 310 310 311 309 308 310 308 308 309 308 308 310 312 316 314 310 310 311 311 312 312 313 313 312 317 318 313 312 314 312 310 310 313 315 309 307 309 308 306 306 306 306 309 309 310 310 310 309 309 310 309 309 310 310 309 310 309 306 305 304 300 298 297 295 292 290
316 316 312 309 309 309 309 310 311 312 313 314 314 314 314 315 314 313 313 314 313 312 311 311 310 308 308 308 308 307 308 308 309 309 309 312 315 313 308 306 308 310 309 311 313 312 314 315 312 312 312 310 311 310 310 313 311 309 310 309 307 306 306 307 309 308 310 312 311 309 309 310 310 309 309 309 309 309 308 308 307 307 306 303 299 296 293 291
317 317 314 312 313 311 309 309 310 310 312 313 313 314 314 314 314 314 313 312 312 311 313 314 311 310 309 309 308 308 307 307 308 309 308 309 310 310 309 307 307 308 307 308 309 310 312 313 312 312 312 311 310 310 310 310 309 309 310 310 309 307 306 307 308 307 308 310 310 309 309 310 309 308 308 308 308 308 308 308 308 308 309 308 303 299 296 293
318 317 315 314 315 314 312 310 310 310 311 312 312 312 313 313 313 313 312 312 311 311 312 314 312 311 311 310 308 308 308 308 308 309 308 308 309 308 309 309 307 306 307 307 308 310 311 311 312 311 310 310 310 310 309 308 307 308 309 309 309 307 306 306 306 306 307 308 308 308 309 309 308 308 308 308 308 308 308 308 308 308 308 308 306 302 298 294
318 317 315 314 314 314 313 311 310 310 311 311 312 311 311 311 312 312 311 311 312 311 311 312 312 311 311 311 310 309 308 308 309 310 309 310 310 310 310 311 310 307 306 307 309 309 309 310 312 310 310 311 310 310 309 309 308 308 308 308 308 307 306 306 305 306 306 307 307 307 307 307 307 307 308 308 308 307 307 308 308 307 307 307 307 304 300 296
316 315 314 313 312 313 313 312 311 311 311 311 312 312 311 311 311 312 312 310 311 311 311 311 311 311 310 311 310 310 310 310 309 310 310 310 311 312 312 313 313 310 309 310 310 308 308 310 311 310 312 312 311 311 311 310 309 308 309 309 308 308 308 307 307 307 307 307 307 307 307 307 306 306 307 307 307 307 307 307 307 306 307 307 306 306 304 299
315 314 313 314 314 313 313 313 312 311 311 311 311 312 312 311 311 312 312 312 311 311 311 311 311 311 310 310 310 310 309 309 309 308 309 308 310 314 315 314 312 311 312 312 311 310 311 312 311 311 311 312 312 313 313 312 311 310 310 310 309 310 310 309 309 308 308 307 307 308 308 307 307 308 307 307 307 307 307 307 306 306 306 306 306 306 305 301
Wind_Speed
13 13 14 15 15 16 17 18 19 20 21 21 22 23 23 24 24 24 24 24 18 12 11 7 4 5 5 5 6 5 9 6 1 3 3 1 2 2 4 4 3 4 4 4 3 6 3 2 3 5 7 3 4 2 2 2 2 3 3 3 1 3 3 5 7 7 4 2 3 4 5 6 3 3 2 1 1 1 1 4 3 4 4 4 4 1 16 31
12 13 13 14 14 15 16 17 18 19 19 20 21 21 22 23 24 24 24 24 20 13 12 9 4 5 6 6 7 6 9 7 1 1 2 2 2 3 4 5 4 4 4 4 3 4 2 2 2 6 4 3 2 3 2 1 3 3 3 2 2 5 5 5 7 6 3 1 3 4 4 4 5 5 4 3 2 1 3 5 3 6 7 4 3 9 21 29
12 13 13 14 14 15 15 16 17 18 18 19 20 20 21 21 23 24 24 23 21 15 13 11 6 5 6 8 7 6 7 6 2 3 1 1 2 3 3 6 5 3 4 4 4 4 3 2 4 6 4 3 1 2 3 3 1 2 3 2 4 5 4 4 6 6 5 3 3 4 3 3 5 4 4 3 1 2 7 7 5 9 12 7 6 13 20 24
12 13 14 14 15 15 16 17 17 18 18 19 19 20 20 20 21 23 23 23 22 16 13 13 9 5 5 7 7 6 4 4 2 3 2 0 2 3 4 5 6 4 4 5 5 5 5 5 5 4 4 3 3 3 3 3 1 1 3 3 4 2 2 5 7 6 5 3 4 4 3 2 4 3 3 4 2 5 9 11 11 14 15 10 7 12 19 21
13 14 15 15 16 16 17 17 18 18 18 19 19 20 20 20 20 22 23 22 22 17 13 14 11 6 4 5 6 5 3 3 3 3 2 1 1 4 5 5 6 4 4 5 5 6 5 5 6 5 4 3 3 4 1 3 1 1 0 3 4 3 2 4 5 4 3 4 3 5 3 4 3 2 4 8 8 8 6 9 13 14 9 10 11 14 17 17
13 14 14 15 17 17 18 18 19 19 19 19 19 20 20 20 20 21 23 23 22 18 13 12 10 7 3 2 4 3 2 0 3 3 2 2 1 4 5 5 5 5 5 5 5 6 6 6 6 4 3 3 1 2 1 3 2 0 2 3 3 4 3 3 2 3 4 6 4 4 3 3 3 4 4 9 15 8 2 3 7 8 7 14 15 15 14 13
13 13 14 14 16 17 18 18 19 19 19 20 20 20 21 21 20 21 22 23 22 18 13 11 10 7 2 2 3 1 2 3 3 3 4 3 2 3 3 4 5 5 3 5 6 5 6 7 5 3 4 3 2 2 2 3 3 2 1 3 2 3 6 3 2 2 4 5 5 3 1 3 5 5 1 8 18 9 2 1 2 4 10 16 14 11 13 15
12 13 14 14 15 16 17 18 19 19 20 20 20 21 21 22 21 21 22 23 23 18 12 10 7 3 1 3 3 2 2 4 3 3 3 2 2 3 2 2 4 3 4 8 6 5 5 6 3 3 2 2 3 2 1 1 2 3 2 3 1 2 6 4 1 2 3 4 1 2 3 4 5 2 2 13 16 9 5 2 4 5 10 12 12 11 12 13
12 13 14 14 15 16 17 18 19 20 20 21 21 21 22 23 22 22 22 22 23 17 11 9 5 2 2 2 4 1 4 4 3 2 2 2 2 2 1 1 3 2 6 9 6 4 3 2 3 4 3 2 4 2 1 0 1 2 4 4 2 3 5 4 4 2 1 3 2 2 7 5 2 1 7 15 11 5 4 3 5 7 8 10 10 10 11 11
14 14 14 15 15 16 17 18 19 20 21 21 22 22 22 24 23 23 22 23 22 15 10 8 4 3 4 2 5 0 4 3 2 2 1 1 1 1 1 2 3 3 6 7 6 6 4 5 4 4 5 3 3 1 1 1 1 3 4 3 4 3 4 2 3 3 1 3 5 6 8 5 3 1 6 8 2 3 5 4 4 7 8 9 8 9 11 12
15 15 15 15 15 16 17 18 20 21 22 22 23 23 23 24 24 24 22 23 21 12 9 8 4 3 4 3 5 4 5 4 2 2 1 1 2 2 1 3 3 4 5 7 7 6 6 9 9 5 2 1 2 1 2 2 2 1 1 3 5 4 5 2 3 4 1 2 6 7 5 3 3 2 10 5 2 3 6 5 5 7 7 7 8 8 9 12
17 17 16 16 16 16 17 19 20 21 23 23 23 24 24 24 24 24 23 23 18 9 8 8 3 3 2 2 3 6 5 5 3 1 1 1 3 2 4 5 4 4 4 6 6 6 8 9 9 5 0 3 3 1 1 2 3 1 2 2 6 7 4 4 1 2 1 2 6 6 3 5 4 11 14 3 3 2 5 6 6 7 6 5 7 6 6 10
18 18 19 18 17 17 17 19 20 21 23 23 24 25 25 25 25 25 25 22 13 6 7 7 4 4 2 1 4 7 6 5 3 2 1 3 4 4 6 5 6 6 4 6 8 8 8 6 7 6 2 4 1 1 3 3 3 0 2 1 4 7 4 3 2 1 2 2 4 3 5 7 9 16 12 2 5 4 4 7 5 6 6 5 6 6 6 10
19 20 20 20 20 19 18 19 20 21 22 24 24 25 25 25 25 26 25 18 8 5 6 5 3 3 3 3 3 5 6 5 3 3 2 3 4 5 7 6 7 8 6 8 10 9 7 6 9 7 3 3 1 2 3 5 3 0 1 2 2 2 4 5 1 2 2 1 2 3 5 9 9 12 9 4 6 6 7 8 6 6 6 5 7 7 7 10
21 21 21 21 21 21 19 19 20 21 23 23 24 25 25 25 25 26 22 12 5 4 4 3 3 4 1 4 2 3 5 4 4 3 2 2 4 4 5 6 7 10 9 9 10 9 7 6 8 6 0 1 3 3 3 4 3 3 1 3 3 0 4 8 3 4 3 1 1 3 4 10 12 10 4 3 5 6 9 9 7 8 8 8 7 7 7 8
23 23 23 22 22 22 20 20 20 21 22 23 24 24 24 24 24 22 15 7 5 4 3 3 5 5 1 3 1 2 3 4 3 3 3 2 3 4 7 8 7 9 9 9 10 9 6 5 4 2 1 1 4 4 3 4 4 3 1 3 3 2 3 6 3 3 3 1 1 3 3 7 10 7 1 3 5 6 8 9 8 9 10 9 7 8 8 7
23 24 24 23 23 22 21 20 21 21 22 23 24 24 23 22 20 15 8 4 2 2 1 2 5 4 1 1 2 1 1 3 3 3 3 3 3 5 7 6 6 7 8 7 6 4 4 5 1 0 2 3 2 4 3 3 4 3 2 2 4 3 3 5 4 2 0 2 3 3 5 11 15 12 6 4 6 7 9 12 10 9 10 9 8 9 9 9
22 23 24 24 24 23 21 20 21 21 22 23 22 24 22 18 14 8 3 1 1 1 1 1 3 2 2 2 2 2 2 2 3 4 4 4 4 4 5 4 4 6 6 4 2 2 3 3 2 1 3 2 2 5 2 4 4 4 3 3 4 3 4 5 5 2 2 1 4 3 6 15 19 19 14 7 7 9 13 13 9 10 12 10 9 9 9 10
21 22 22 23 23 23 21 20 21 19 21 22 22 21 16 11 7 2 0 2 0 1 1 2 2 2 3 3 3 2 3 3 3 4 5 5 5 5 5 5 5 5 3 1 1 3 1 2 3 1 3 3 4 6 8 8 7 6 5 4 5 5 5 7 6 4 1 1 7 9 9 15 17 19 19 9 6 9 14 11 7 10 12 9 9 9 10 12
20 20 21 21 22 22 20 19 19 18 18 20 21 17 8 4 5 3 4 3 3 3 2 5 4 3 5 3 1 2 4 3 4 5 7 7 6 5 3 4 5 4 2 3 1 2 2 0 3 7 7 7 8 8 6 4 6 5 4 4 5 6 7 7 4 3 0 2 8 10 9 13 16 18 21 11 4 9 15 11 9 13 12 9 9 11 13 14
19 19 19 20 21 21 18 17 17 15 14 15 15 9 1 2 1 4 5 6 7 5 5 6 3 6 8 4 2 3 2 2 3 5 8 7 6 4 1 2 3 0 2 3 2 1 3 2 8 10 8 6 5 6 6 5 5 4 4 4 5 5 7 8 4 4 2 2 6 7 7 13 16 17 20 14 8 15 17 10 13 18 14 9 10 13 13 11
17 17 18 19 20 19 15 14 14 12 11 10 7 1 4 3 4 3 1 4 9 5 6 5 2 7 9 7 5 3 3 2 5 4 9 7 3 4 2 3 5 4 2 2 2 2 2 6 11 6 6 6 5 5 7 5 5 3 3 2 4 4 4 7 4 4 2 2 4 6 8 15 17 18 23 20 13 17 14 10 15 18 14 10 11 13 11 10
15 16 17 16 18 17 13 12 11 10 8 5 1 3 4 4 6 5 4 1 7 3 3 3 3 6 6 5 7 7 3 5 4 6 9 9 2 4 4 5 5 3 1 5 6 4 2 8 8 4 8 8 6 4 6 5 3 3 3 3 5 3 1 5 4 4 2 2 4 7 10 14 14 16 20 15 8 12 11 9 14 15 12 11 11 11 11 13
14 15 15 14 17 17 13 12 10 7 5 2 2 4 6 5 7 5 2 0 4 5 4 5 5 5 4 1 7 10 3 4 4 4 8 10 4 3 4 5 5 2 5 8 9 7 7 7 4 7 6 8 6 3 6 5 2 3 5 7 6 4 5 6 3 4 4 2 3 6 10 10 7 10 12 6 3 7 7 6 12 12 9 9 8 9 12 14
13 13 13 13 15 17 15 12 7 4 3 2 4 5 7 6 6 5 1 1 3 5 4 4 3 4 5 4 6 8 2 2 4 3 5 8 6 4 2 3 4 5 7 7 8 6 9 6 7 7 4 6 6 4 6 8 3 4 6 11 10 7 7 6 3 5 4 3 3 4 7 8 2 4 8 4 3 7 3 5 13 12 7 7 9 9 11 12
12 12 12 11 13 18 14 6 4 5 3 2 4 4 6 6 5 5 2 3 4 5 2 3 3 4 6 4 2 4 1 4 3 1 3 3 3 3 2 1 0 4 6 7 5 4 3 1 4 6 6 5 5 5 6 8 5 3 5 8 8 6 4 4 1 2 1 3 3 3 1 9 4 3 7 5 5 10 8 7 13 12 6 8 10 10 10 9
11 10 11 10 12 17 11 4 7 7 2 1 2 3 4 4 5 3 1 3 5 4 3 2 1 4 5 1 0 4 3 5 2 3 1 1 2 2 2 3 1 2 4 4 2 3 2 4 4 4 6 6 5 6 7 10 7 4 3 4 6 6 5 5 3 2 3 1 3 0 3 8 9 6 6 4 5 12 14 14 14 11 8 9 10 10 10 9
11 9 10 11 12 14 9 8 11 5 1 1 1 2 3 4 4 1 2 4 6 1 3 1 1 3 2 1 2 4 2 2 2 1 3 2 1 3 0 6 5 4 2 5 4 3 3 5 5 6 5 4 6 5 8 12 5 4 4 6 6 6 5 4 4 3 2 2 3 4 4 5 11 5 1 3 3 10 13 16 15 11 10 9 9 10 9 8
11 9 10 12 13 12 9 9 9 5 2 2 0 1 4 5 2 4 3 5 4 1 1 1 2 1 2 2 1 2 1 2 1 3 3 2 0 3 2 5 5 4 1 2 5 4 2 4 7 7 6 6 4 1 4 8 4 3 6 6 5 5 4 4 3 2 1 2 7 8 7 5 10 4 3 2 3 9 11 12 12 10 9 8 8 8 6 6
12 10 10 12 11 9 7 8 8 7 7 5 2 2 4 3 2 3 4 6 2 0 1 1 2 1 4 4 2 1 1 1 0 1 2 1 2 5 1 3 6 4 1 4 4 4 1 1 3 4 4 5 4 3 2 3 3 6 7 5 5 4 4 3 1 2 1 4 9 10 13 10 9 3 5 4 5 9 10 9 8 8 9 8 6 5 5 6
13 11 9 11 10 6 6 6 5 4 6 7 4 4 3 2 4 4 8 5 1 1 1 1 1 2 5 5 3 2 2 2 1 2 1 1 2 4 1 1 3 3 2 4 5 3 2 1 2 2 3 5 6 5 3 3 3 5 4 3 3 3 3 4 4 3 1 6 6 5 9 11 10 6 4 6 7 8 9 9 9 9 9 6 4 4 5 6
14 14 11 11 12 9 6 5 5 7 7 4 4 4 4 1 2 5 4 1 1 3 3 3 1 3 4 2 1 3 3 2 2 4 4 3 3 4 4 4 5 1 3 4 4 4 2 4 3 1 2 5 6 4 3 4 2 4 4 4 2 4 3 3 3 1 3 8 4 2 4 6 12 11 7 8 11 11 10 10 10 9 9 5 3 4 4 5
15 16 13 12 12 10 6 6 8 9 8 2 2 3 6 3 7 5 4 2 3 2 2 3 1 2 4 2 2 3 2 3 4 3 3 3 3 5 6 5 6 2 3 4 1 3 3 4 2 3 3 4 8 6 3 2 3 6 5 4 3 1 0 3 4 2 5 8 3 3 3 4 8 8 11 17 18 16 12 11 11 8 7 6 3 4 4 5
16 18 17 13 12 10 7 7 10 9 6 1 2 4 4 7 5 5 7 7 2 1 2 3 3 2 2 2 4 4 3 4 4 5 2 3 3 4 6 7 6 2 1 2 1 2 4 7 4 7 3 6 12 9 5 6 5 5 4 5 5 5 4 5 4 4 7 7 4 1 2 4 4 3 9 14 14 12 9 10 8 7 7 4 4 4 5 6
16 20 20 16 14 13 10 10 11 9 4 1 3 3 6 9 2 4 7 5 2 0 1 2 4 3 2 3 3 3 4 4 2 5 4 4 5 5 5 7 9 6 4 3 3 3 4 9 6 3 0 8 9 4 4 8 4 2 3 4 3 5 5 3 3 4 2 5 5 3 4 6 4 3 5 5 6 8 9 7 6 9 8 3 4 7 6 6
18 22 21 19 20 16 14 13 11 8 4 3 4 5 9 8 3 5 6 5 5 5 4 1 3 4 4 3 3 4 2 2 1 3 4 4 4 6 4 4 10 12 9 6 3 3 3 7 3 2 1 4 3 0 2 3 3 3 3 3 3 3 5 2 3 1 4 3 7 2 6 9 5 5 7 7 5 8 9 6 8 12 7 3 6 8 7 8
24 23 18 20 22 18 17 17 13 9 4 3 6 10 8 5 5 7 5 5 5 7 7 3 4 6 5 3 4 5 3 1 2 3 3 3 4 6 6 4 6 15 17 10 4 4 4 5 4 3 2 1 1 1 2 2 3 5 3 5 2 2 3 3 2 3 2 5 6 5 12 14 9 7 3 5 5 11 11 8 10 11 5 5 10 9 8 9
28 20 14 20 27 20 16 19 17 11 5 3 11 14 6 4 6 6 5 5 4 6 7 7 7 7 7 6 4 5 6 3 4 4 3 4 5 5 8 5 5 14 19 12 4 4 3 4 5 2 2 0 2 2 1 3 3 5 4 3 3 3 2 2 2 3 4 4 5 11 17 15 11 7 2 5 10 14 13 9 10 12 9 9 11 10 10 8
24 11 7 20 31 24 19 20 16 9 3 5 13 13 5 4 5 4 7 6 5 6 8 8 7 5 6 7 4 4 7 7 7 6 4 5 5 4 8 6 6 11 15 14 8 2 3 4 4 2 2 1 2 1 5 2 2 2 0 1 2 2 4 3 3 3 3 3 5 12 16 13 8 7 8 11 14 14 11 10 11 14 13 11 10 10 10 9
16 5 3 18 32 30 27 22 12 7 5 7 10 8 2 2 5 6 9 9 5 4 7 7 7 6 5 6 4 4 7 7 7 6 5 5 5 5 7 7 5 5 7 9 6 0 3 3 4 2 3 0 3 5 9 9 6 4 3 2 2 1 2 1 2 2 3 4 4 6 12 14 6 7 10 13 13 12 12 11 12 13 13 12 11 11 9 9
9 4 3 22 37 38 31 16 7 7 6 7 8 5 2 3 4 5 7 8 6 3 3 6 8 8 7 6 4 5 6 5 6 6 4 6 6 5 8 10 8 7 6 3 4 3 3 3 5 3 2 4 7 6 3 5 8 8 8 8 8 6 4 1 5 3 3 4 5 4 10 17 6 6 7 8 8 10 11 11 11 11 12 12 11 12 10 9
6 4 5 27 45 42 25 8 7 7 5 8 8 4 3 4 3 4 4 5 5 3 0 3 7 8 7 6 5 6 6 5 7 7 5 6 9 8 8 8 10 10 8 5 4 4 3 2 4 7 8 7 5 1 1 2 5 5 4 5 6 7 7 6 8 5 2 2 3 3 6 16 5 6 5 6 7 9 11 11 11 10 10 11 11 10 9 9
5 4 8 33 51 40 17 5 7 7 7 9 8 5 3 3 2 4 5 5 5 3 3 4 5 7 7 5 4 6 7 6 7 8 4 5 9 10 6 9 10 9 6 3 1 1 3 2 4 7 7 3 3 4 3 2 5 2 4 4 6 8 9 8 7 3 2 5 4 3 7 16 7 3 4 6 6 8 9 10 11 10 8 8 9 9 8 8
5 2 4 27 46 34 12 6 10 10 10 10 11 10 6 3 5 7 6 7 6 6 7 8 5 5 6 4 5 7 9 7 7 7 7 7 8 6 8 13 12 8 6 5 5 5 4 3 5 5 6 5 4 2 3 3 1 4 5 5 8 10 8 4 1 1 5 9 7 5 11 17 8 2 2 6 5 8 9 8 8 9 8 7 7 7 7 7
4 2 2 14 28 20 7 5 7 9 13 14 14 13 9 6 6 9 9 8 7 5 6 7 4 5 5 5 4 8 8 8 8 5 6 8 5 2 8 14 14 11 9 7 7 8 6 5 7 7 8 10 11 9 5 2 3 3 3 6 10 13 14 8 3 6 11 8 8 7 15 19 13 4 4 6 6 9 10 8 7 8 9 8 6 7 7 7
3 3 2 5 9 9 7 3 2 4 10 14 11 10 14 12 6 4 8 9 8 5 3 3 3 5 6 6 7 10 10 10 7 4 5 6 3 3 5 10 14 14 10 6 7 7 4 5 10 13 15 14 16 17 8 7 6 6 7 10 13 15 17 12 7 11 10 3 5 15 22 21 21 20 15 9 8 10 10 9 8 9 9 9 9 9 8 8
4 4 4 5 3 6 8 6 6 6 5 8 7 6 14 17 8 3 7 9 8 7 4 3 4 7 8 10 10 12 12 9 6 9 12 10 5 4 2 4 9 10 4 3 5 5 3 6 14 19 22 21 21 23 11 9 8 10 10 13 14 15 16 14 16 19 8 4 10 23 23 18 20 28 29 19 13 14 15 14 12 10 9 10 9 9 9 8
6 3 5 9 5 6 10 11 14 14 10 9 8 7 11 14 12 9 8 5 4 7 7 6 10 15 16 15 13 12 11 9 9 13 15 11 6 5 2 2 5 5 3 2 2 3 3 8 15 19 23 22 21 23 15 8 8 9 10 14 17 17 18 19 24 24 14 12 20 22 19 17 19 29 34 24 16 17 19 17 14 10 8 8 7 8 10 10
5 2 2 7 6 8 13 15 16 19 18 13 9 9 13 16 18 15 7 3 4 9 11 12 16 21 21 18 13 10 11 11 12 14 12 10 9 7 5 6 3 1 2 3 2 2 3 7 13 16 18 18 19 22 16 9 8 9 9 12 18 20 19 20 25 28 25 24 24 20 19 20 23 31 30 19 15 16 14 12 12 12 11 9 9 10 11 10
5 1 2 6 5 7 10 10 10 12 15 14 11 12 15 18 21 17 8 9 10 8 11 18 23 21 17 14 13 12 15 16 17 15 12 11 10 6 5 6 3 2 1 3 3 2 4 8 11 12 11 14 19 21 14 9 12 14 10 13 23 23 16 17 25 26 23 22 20 19 19 19 25 30 21 14 18 17 13 15 18 18 16 13 12 12 11 11
12 6 1 2 4 7 8 8 9 10 10 11 13 14 16 20 23 19 13 14 16 12 13 21 26 16 6 8 14 19 23 22 21 20 16 12 9 7 5 6 5 3 3 4 2 2 4 6 7 8 9 11 16 18 13 8 8 9 13 22 29 22 15 19 24 20 15 15 18 18 15 17 24 21 12 13 19 17 16 20 21 19 17 15 15 16 14 12
12 10 5 3 4 7 9 8 9 10 9 11 17 19 18 21 23 19 12 9 15 19 16 18 20 13 6 12 22 27 27 26 23 21 16 10 6 7 8 9 11 10 7 5 4 4 5 4 4 7 9 12 16 16 8 4 3 8 14 21 24 21 20 24 25 19 13 12 13 15 16 20 23 17 13 17 18 14 16 19 19 18 16 14 16 19 17 12
Wind_Direction
10 10 10 10 10 11 10 9 10 10 10 9 9 10 12 15 15 15 13 8 4 5 9 355 296 260 249 244 247 302 347 347 3 136 149 144 59 28 4 7 4 0 30 43 90 159 168 46 69 124 131 71 9 337 19 39 72 55 78 96 134 174 201 187 185 198 175 232 221 207 191 162 204 226 179 159 96 112 238 266 262 284 270 232 272 242 161 165
5 5 5 5 4 5 5 4 4 5 5 5 5 4 6 10 11 11 11 9 3 359 2 0 331 276 250 248 254 279 329 337 293 129 100 112 33 15 8 13 4 360 28 46 81 131 122 11 91 111 93 49 352 341 24 1 65 87 112 87 228 195 209 198 180 194 178 194 194 199 195 178 205 180 158 208 238 171 212 251 260 279 265 228 198 158 159 164
0 359 358 358 357 357 358 359 359 360 1 1 1 2 3 4 7 7 8 8 4 357 353 356 344 301 263 248 253 273 314 340 301 257 236 71 15 353 360 12 6 14 28 32 58 79 94 144 140 113 67 59 9 8 44 2 35 143 111 97 246 212 234 229 189 203 202 152 150 196 169 194 228 160 156 208 225 194 213 231 207 238 242 207 170 163 163 166
358 355 353 352 352 351 351 352 353 355 356 357 357 359 360 0 3 3 4 4 3 358 349 349 343 322 284 250 246 266 320 5 268 218 177 267 354 349 356 9 9 36 45 39 54 57 80 111 109 93 75 70 342 19 62 332 296 140 115 167 229 184 254 235 200 212 206 153 153 162 125 226 231 158 182 164 176 248 231 229 210 222 225 188 169 174 172 171
355 353 351 348 347 347 347 346 347 349 350 351 353 354 356 357 359 0 0 360 359 356 349 343 338 336 311 252 235 261 10 34 248 187 161 231 301 350 3 10 13 50 53 43 54 49 58 77 72 56 62 78 350 27 81 294 79 97 202 208 202 147 244 236 201 212 177 125 123 130 157 214 148 169 208 169 207 239 224 229 220 225 215 168 172 176 175 177
350 349 348 344 343 342 342 342 343 344 345 346 348 350 351 352 355 357 357 356 355 351 347 342 334 338 334 211 213 234 95 213 235 173 208 217 249 335 6 8 20 53 45 48 60 56 47 39 55 61 53 70 19 74 187 294 35 151 268 266 228 172 219 236 172 210 160 131 155 169 190 156 130 248 224 192 225 229 137 228 229 233 190 165 169 169 175 182
346 344 341 340 339 337 338 338 338 339 341 342 344 347 347 348 351 353 354 353 352 348 344 343 330 324 348 149 179 115 91 252 237 178 225 211 246 323 7 1 25 49 46 51 54 79 68 38 59 113 84 80 188 152 170 301 27 104 191 271 262 172 218 245 106 186 171 168 202 189 150 155 193 245 32 221 235 229 196 206 208 204 160 160 166 171 185 186
341 339 335 336 334 333 333 332 335 336 337 338 340 343 344 345 346 348 350 350 350 346 338 342 329 305 114 151 167 30 335 247 208 192 224 224 265 325 344 356 35 59 76 53 52 130 99 54 107 153 79 92 178 151 129 283 37 87 168 230 231 195 240 272 300 210 195 224 247 114 221 224 209 214 289 251 243 229 224 146 127 149 145 163 175 180 188 187
335 334 332 332 329 330 329 329 331 331 334 335 336 339 340 342 342 343 346 347 348 342 335 342 323 240 183 149 110 17 272 202 166 195 215 235 280 346 313 53 55 77 84 60 60 119 111 121 188 189 163 142 159 146 7 217 263 186 171 199 213 263 279 315 291 247 165 232 131 169 251 266 271 304 267 260 251 214 183 118 138 150 157 182 184 184 186 186
328 328 330 329 328 327 326 326 327 328 331 331 332 335 337 339 338 340 341 343 345 337 334 337 304 229 212 173 91 239 241 171 168 209 193 220 199 321 256 81 63 80 88 73 70 79 106 173 173 151 145 120 139 153 320 120 161 186 163 212 221 267 304 356 295 295 359 241 170 199 253 274 332 333 253 267 290 147 141 136 170 166 182 192 188 193 191 192
323 323 323 324 326 325 324 324 323 325 326 327 330 331 334 336 335 337 337 339 341 332 331 333 303 238 217 156 122 210 220 168 188 201 199 225 183 204 120 77 68 91 99 87 83 88 117 156 143 120 136 128 128 72 285 179 105 155 121 280 275 316 295 240 286 290 300 248 182 184 245 278 26 245 237 246 93 158 155 171 191 190 202 194 192 194 191 202
318 318 319 320 321 322 323 322 320 321 322 324 327 328 331 333 333 333 332 334 336 321 316 328 303 213 186 112 175 213 203 173 193 198 213 193 163 153 82 71 73 87 111 105 109 117 124 148 129 98 205 152 134 55 207 153 73 92 87 299 300 352 316 228 274 286 179 206 183 165 270 258 196 228 240 211 129 156 154 191 203 205 211 195 199 196 198 205
315 315 315 316 317 319 320 320 320 319 319 321 323 326 329 331 331 328 328 331 330 312 306 318 288 203 148 290 219 202 196 191 211 196 150 142 140 111 80 79 83 86 98 116 126 123 124 150 120 103 124 113 133 176 115 63 51 119 77 59 311 355 325 239 76 56 149 177 179 158 288 259 216 233 243 160 148 144 168 216 213 211 214 202 205 204 208 204
314 313 313 313 315 317 318 319 320 318 318 320 321 324 328 331 328 323 326 327 320 305 299 305 270 182 151 257 219 188 208 204 204 183 136 142 135 102 89 89 89 93 94 107 121 117 117 133 108 99 99 84 123 142 53 13 30 59 15 45 7 347 289 288 16 112 159 195 160 149 266 271 259 248 240 185 168 166 206 228 215 216 214 209 212 209 215 209
310 310 310 312 314 314 317 319 319 319 319 319 321 324 328 331 325 322 324 322 309 290 279 272 215 156 104 277 225 178 211 196 188 179 131 128 138 120 106 107 101 96 95 101 110 110 114 119 95 80 32 16 66 83 18 348 12 30 333 306 339 202 274 299 285 182 205 296 78 155 236 276 276 266 243 175 175 187 224 233 217 221 217 215 217 210 218 215
307 308 308 310 313 313 315 317 318 319 319 320 323 324 329 329 321 318 320 322 314 273 249 232 192 155 95 275 184 159 202 177 178 182 150 123 134 138 125 117 104 95 100 104 105 104 95 82 66 67 119 68 76 84 31 1 344 2 47 255 275 228 284 311 289 220 228 274 255 211 236 280 276 272 284 152 188 201 233 243 225 223 222 217 218 213 216 215
305 306 307 309 311 310 314 316 316 318 319 322 325 326 331 326 315 314 319 333 332 234 196 184 163 141 292 210 154 236 219 161 167 160 148 125 110 134 132 113 92 95 99 100 102 88 48 49 61 257 50 50 83 90 35 333 300 321 20 251 254 230 262 301 293 280 134 175 232 225 234 259 267 274 269 191 190 208 236 245 233 225 227 220 218 216 215 214
305 306 307 307 308 309 313 315 315 317 320 323 328 330 329 319 310 312 312 333 11 87 81 135 122 100 276 211 196 246 203 173 172 159 163 149 120 134 138 117 114 104 71 59 59 25 9 36 74 342 14 18 67 97 173 245 222 224 230 241 270 254 241 258 266 273 88 184 242 233 240 257 268 276 272 228 183 218 242 246 239 233 233 225 215 215 216 217
307 308 307 307 308 308 313 315 315 318 321 324 330 333 328 316 316 312 11 25 60 168 231 233 159 154 230 239 253 250 197 182 185 180 174 157 139 134 120 100 109 105 71 9 343 26 37 43 71 216 260 216 186 170 200 214 181 185 199 194 233 254 256 247 243 252 208 256 257 244 244 260 269 274 276 260 180 223 249 251 249 243 240 227 214 216 216 221
310 312 310 310 309 308 314 316 315 320 325 329 337 342 341 345 354 328 333 341 219 194 231 236 221 251 268 268 230 200 203 201 203 187 164 159 150 135 102 59 54 66 107 182 235 22 95 113 229 227 227 207 205 201 189 175 146 138 152 185 230 239 263 265 254 284 296 214 258 252 252 264 267 270 274 269 196 242 253 249 254 250 245 228 214 220 217 223
315 315 314 315 311 311 318 317 314 321 328 335 344 352 77 143 351 297 312 299 262 235 241 243 225 262 267 262 224 166 168 235 236 186 167 165 143 149 250 42 85 95 258 182 170 5 85 196 241 233 215 189 192 178 130 118 125 117 161 206 257 235 253 270 273 320 350 181 262 275 277 268 265 269 273 266 236 254 253 236 250 253 247 233 217 224 221 223
312 315 318 317 313 317 324 320 315 319 325 332 342 60 160 180 193 211 176 299 286 245 228 261 267 263 261 249 237 150 109 262 278 236 179 156 116 186 235 69 140 200 271 147 147 17 59 238 246 223 160 118 87 123 123 122 132 122 139 181 259 243 271 290 310 347 359 196 270 293 286 270 265 264 267 264 246 256 255 218 238 252 248 233 220 225 220 215
308 315 320 319 318 321 328 327 316 314 320 323 322 154 161 171 169 169 136 273 293 275 216 231 214 243 261 253 211 162 166 221 255 264 186 156 128 186 155 114 152 171 173 179 174 154 189 249 247 168 136 116 82 104 119 110 127 154 147 179 248 241 284 283 304 331 284 227 280 291 279 267 262 256 261 269 256 259 263 227 237 249 243 234 223 220 213 211
308 315 316 317 322 323 329 330 318 310 307 278 165 167 165 162 163 168 147 326 288 287 243 213 203 214 218 224 175 170 208 215 202 255 183 159 144 154 161 149 142 171 215 190 170 185 228 237 161 123 129 122 117 138 141 148 223 237 196 210 239 228 221 237 281 322 308 314 327 308 291 278 258 250 260 286 317 277 266 241 254 249 233 241 234 218 214 214
308 310 312 315 321 323 325 322 318 329 306 196 152 157 158 161 161 156 96 4 280 294 286 227 215 208 182 110 141 171 195 254 219 231 179 165 150 137 179 164 155 211 208 158 150 209 248 223 140 131 130 120 141 192 187 175 204 286 229 217 224 223 231 249 325 352 348 325 333 6 321 298 250 231 266 289 317 288 252 223 261 257 216 222 235 226 220 219
313 314 317 318 325 328 327 318 328 348 332 185 154 159 162 167 166 160 91 29 272 272 280 217 190 177 169 115 132 164 129 283 271 121 151 178 169 134 145 175 158 210 177 137 149 217 253 166 125 151 164 157 176 233 223 172 152 282 244 208 206 200 212 239 293 352 276 253 304 51 333 280 262 208 269 289 301 286 273 251 260 263 230 213 227 228 221 216
316 317 313 311 327 334 335 320 317 329 332 168 152 179 184 177 184 193 22 350 275 229 160 228 189 150 168 165 117 145 188 275 358 52 65 37 306 64 143 206 164 200 178 129 183 236 157 99 82 125 139 157 191 244 216 158 141 239 231 133 139 152 177 194 163 195 239 272 325 322 183 272 275 238 256 291 298 284 279 271 266 261 246 228 227 227 220 211
304 307 308 307 319 328 323 308 310 319 61 81 156 197 175 172 195 135 70 275 271 155 127 258 98 119 136 66 78 119 217 297 70 307 345 40 299 50 196 228 177 184 195 138 207 259 120 148 174 147 129 172 204 233 191 159 159 235 184 117 120 138 153 155 144 191 266 20 307 249 169 266 274 241 288 2 261 263 267 264 264 262 252 237 231 230 219 207
285 289 306 305 305 311 310 304 300 285 302 342 286 201 154 170 186 72 97 245 266 70 91 104 126 105 54 95 102 82 9 352 118 272 340 60 276 67 185 219 141 152 201 139 224 266 74 193 196 151 151 203 208 263 180 168 194 184 129 95 77 77 81 90 129 158 11 340 258 237 171 222 273 223 138 58 203 240 252 257 260 261 256 243 236 234 212 198
270 278 302 300 289 297 311 307 294 282 286 282 259 152 145 156 99 101 228 243 254 239 97 120 173 161 102 127 251 289 192 274 318 342 4 97 12 35 147 177 98 116 337 351 273 253 5 264 205 153 171 186 140 81 76 131 145 128 108 71 49 44 51 50 62 90 7 269 255 237 182 192 269 249 168 199 202 211 223 245 259 260 261 250 234 228 196 194
255 260 281 288 275 282 315 313 313 323 298 267 222 142 125 55 85 180 231 241 258 259 144 167 218 128 135 157 206 191 166 253 250 136 142 156 45 39 67 167 94 80 353 321 285 283 352 18 234 216 155 128 101 75 41 47 89 107 97 71 32 341 12 17 359 57 272 257 260 249 177 184 242 254 208 238 246 220 207 221 232 234 249 245 211 207 197 198
246 247 259 273 265 262 276 279 293 323 317 269 176 122 92 68 228 209 223 278 267 228 174 178 224 169 169 166 206 187 170 208 200 164 162 159 164 178 197 192 161 99 303 250 269 325 295 222 220 217 165 146 118 83 29 8 56 106 102 86 43 321 354 348 307 132 227 255 249 146 143 206 244 247 238 250 256 238 216 217 217 215 228 221 188 212 208 199
242 238 241 253 249 239 242 265 275 290 307 284 169 71 82 191 238 187 166 218 223 220 139 115 79 139 142 134 233 208 181 213 189 169 171 147 171 226 242 214 166 177 255 211 255 341 294 290 152 163 242 182 159 168 213 238 177 163 149 129 143 160 56 273 269 275 270 271 264 136 142 257 270 256 226 225 234 230 217 221 222 222 232 230 227 224 212 208
241 234 230 234 230 220 228 263 263 263 287 301 128 74 110 223 242 135 177 220 225 6 46 93 79 82 142 197 231 196 190 236 172 150 178 138 160 237 239 222 194 158 122 157 187 174 246 285 202 176 219 177 181 199 179 138 151 179 154 140 160 154 181 236 234 250 275 292 292 211 177 223 242 259 220 220 236 237 225 224 225 241 249 243 257 239 217 215
237 230 226 221 211 213 231 246 245 243 260 152 120 127 200 223 220 138 197 208 191 15 35 64 95 113 251 267 271 233 211 239 144 133 185 174 187 211 193 201 194 161 129 172 227 169 221 267 233 177 202 165 181 214 115 110 134 201 127 126 182 174 177 232 221 198 243 317 290 230 218 223 215 288 263 238 264 252 237 233 231 246 245 231 258 246 227 218
219 217 215 205 199 210 223 222 217 216 213 148 156 213 225 223 174 176 196 169 176 160 116 32 100 146 254 275 263 255 221 243 146 150 215 209 222 218 190 206 188 177 179 179 203 182 206 273 264 70 346 169 169 275 96 120 171 167 150 175 208 175 139 170 268 24 73 280 274 247 255 271 297 292 240 203 231 245 239 233 231 239 237 223 248 242 229 221
203 203 201 192 195 208 215 211 202 195 190 160 204 221 223 218 183 178 173 148 157 133 130 210 198 173 219 235 228 216 175 260 188 177 219 218 242 207 191 246 191 186 199 194 209 215 196 266 253 152 188 229 30 77 54 13 119 131 192 212 176 116 100 109 253 341 25 246 272 289 269 273 285 284 235 165 218 242 237 226 232 241 231 228 242 238 230 224
195 193 198 196 198 204 208 206 194 177 152 170 228 237 218 197 202 172 148 140 141 140 162 213 211 180 194 210 222 181 169 198 177 180 213 211 247 192 166 215 199 193 206 201 223 246 173 246 267 130 121 356 26 109 94 353 73 124 198 206 113 143 167 110 172 239 255 243 276 280 275 271 256 245 193 177 216 232 233 224 230 237 227 227 238 238 234 224
184 186 221 202 201 203 194 191 183 166 158 191 224 240 217 203 234 193 173 171 157 168 192 217 215 199 194 186 178 162 183 197 173 184 215 198 236 206 163 194 209 202 204 189 195 231 143 213 262 4 13 353 36 153 189 208 63 73 227 34 56 161 173 168 170 183 215 227 267 279 282 276 239 192 180 204 215 218 219 215 222 229 224 222 226 231 230 217
172 191 244 185 192 192 176 171 170 173 202 212 226 240 206 225 249 225 209 200 182 184 203 214 208 210 208 183 177 180 196 206 183 190 222 201 227 237 193 193 189 185 189 181 197 234 87 210 240 321 347 259 190 204 199 191 172 156 175 187 217 184 127 209 232 128 144 198 237 271 278 273 244 157 179 206 212 206 201 205 214 220 222 220 220 225 223 213
164 228 205 169 176 171 159 160 186 190 206 236 245 251 240 251 240 232 231 214 214 225 175 184 198 204 198 187 204 191 181 204 192 191 230 217 223 241 209 192 168 136 115 135 221 218 147 202 221 222 264 231 220 222 205 188 177 174 187 194 194 183 139 192 250 222 147 198 206 191 263 271 256 141 184 201 198 204 203 208 215 216 218 220 221 224 219 213
174 224 172 166 169 162 152 170 204 190 213 227 232 241 222 240 240 239 243 212 219 257 267 205 206 204 202 196 201 182 170 201 201 199 230 223 217 227 214 184 159 143 132 144 211 206 138 149 219 232 241 239 240 281 45 153 151 158 207 195 178 181 170 190 232 231 144 229 222 123 264 270 251 135 182 193 183 204 205 205 214 218 219 222 224 226 222 221
192 197 153 165 168 159 150 198 195 196 229 223 235 255 223 220 236 228 219 201 205 212 228 238 200 203 224 201 171 180 189 210 204 190 208 229 227 227 193 151 147 144 139 147 193 151 109 143 215 246 264 292 16 35 26 56 104 147 240 189 172 203 201 205 224 191 158 228 211 122 255 262 264 121 195 207 195 218 222 209 213 223 229 231 233 232 227 228
183 170 129 170 173 166 160 197 193 207 221 220 238 243 227 221 227 225 212 201 203 195 213 230 199 204 230 180 169 203 198 207 219 193 195 228 242 221 165 157 160 166 182 187 178 172 177 186 195 231 269 285 298 325 348 348 157 210 234 183 189 216 215 229 298 127 236 229 178 165 249 257 268 53 220 241 233 235 243 232 221 230 239 238 239 239 232 228
174 134 61 179 183 184 196 201 188 206 214 218 233 234 233 244 230 223 218 215 221 198 208 235 203 190 211 173 197 226 205 210 232 213 205 231 259 239 179 175 176 191 212 203 169 165 179 186 181 203 233 241 248 248 235 196 191 220 226 178 190 206 205 209 225 224 237 223 156 187 248 258 266 262 225 244 251 246 249 249 240 241 247 246 245 242 231 223
198 159 124 179 197 215 237 248 193 211 212 215 227 230 229 238 245 214 207 221 237 219 202 247 186 179 198 188 213 236 227 226 232 229 231 230 243 275 209 187 192 205 209 189 165 157 158 188 193 212 228 229 240 248 222 130 151 210 210 197 201 208 206 203 227 235 229 178 179 226 242 256 270 271 258 239 235 245 250 248 244 246 248 246 244 240 228 222
221 203 170 173 201 226 232 247 233 227 212 198 203 216 222 231 247 229 199 211 224 216 217 243 203 199 207 200 213 233 230 223 221 233 242 238 240 285 292 194 223 229 201 164 187 166 145 212 212 220 233 232 239 248 228 147 181 210 201 208 214 211 202 200 225 233 211 136 236 241 242 252 267 269 264 253 242 252 258 256 253 252 245 237 236 235 227 226
215 209 166 177 187 197 206 217 215 214 211 192 195 217 225 228 231 225 214 207 206 201 207 227 220 219 219 207 210 229 226 218 224 230 238 242 240 263 286 235 245 242 187 183 231 173 174 228 222 225 238 237 242 251 237 185 203 211 195 212 222 215 203 204 227 234 216 215 241 246 248 253 257 260 262 261 258 259 263 265 265 260 248 235 231 231 227 224
216 245 196 191 192 188 198 207 205 207 212 208 207 219 223 226 226 223 206 162 213 209 202 222 229 224 223 216 210 221 219 218 229 231 233 237 226 221 238 243 264 28 153 203 248 195 190 235 234 236 246 246 247 252 241 207 224 235 212 219 233 230 212 210 230 237 229 232 245 253 257 258 256 257 262 272 273 265 266 274 274 264 254 243 234 235 233 225
212 201 194 204 216 200 201 208 197 199 211 212 214 220 221 227 230 228 203 185 209 208 192 221 235 229 223 220 218 230 228 223 232 234 224 222 219 208 217 232 243 30 161 219 254 238 211 229 237 244 256 254 251 255 246 209 223 242 243 243 246 243 227 222 235 240 239 245 253 257 260 260 257 259 269 283 277 272 275 276 273 270 268 265 258 254 243 227
236 249 229 208 229 206 202 208 193 197 211 207 213 220 220 225 227 228 223 208 212 210 192 213 232 235 209 198 216 231 233 228 232 235 228 218 207 195 203 217 216 217 222 218 217 205 212 229 239 247 258 252 250 257 251 208 209 238 243 246 248 247 238 238 241 240 239 251 260 260 257 254 257 264 273 266 262 265 269 268 267 269 270 269 269 268 257 233
245 255 250 238 232 201 204 216 200 202 211 204 210 215 216 222 223 223 232 224 219 223 212 210 224 229 201 206 218 225 230 231 234 237 241 242 209 191 205 211 211 215 216 203 192 183 188 202 223 233 248 252 250 254 247 162 186 241 237 240 248 251 248 249 253 251 236 233 251 257 254 256 264 271 268 260 260 257 255 258 261 264 266 265 264 265 260 239